Torna al catalogo

STARLINK-5275

AttivoComunicazioniVLEO
NORAD 55398·PAYLOAD·🇺🇸 United States

Lanciato Jan 31, 2023 da Vandenberg Space Force Base

Loading…

Prossimi Passaggi (prossime 24 ore)

TLE

AggiornatoSource: CelesTrak SupGP

Epoca: Sep 14, 2026, 22:28 UTC

1 55398C 23014H   26257.93659722  .00042628  00000+0  35734-2 0  2577
2 55398  69.9999 307.2609 0003681 267.5958  94.8189 14.98297465    15

Traccia STARLINK-5275 in tempo reale con AllMySat

Download on the App Store